User: anonymous   Login
Location: Unspecified
(0.0000°N, 0.0000°E)
Time: 19:17:08
(UTC+00:00)
Language:

STARLINK-34106 - Orbit

View from above orbital plane
View from above orbital plane
View from above satellite
View from above satellite

Ground track
Ground track

The orbit is defined by the following mean orbital elements,

1 63907U          26145.01023021 +.00000000 +00000-0 +77300-3 0 00005
2 63907  43.0000 104.8841 0001458 271.0598  89.0087 15.27598513    08
Epoch (UTC): 25 May 2026 00:14:43
Eccentricity: 0.0001458
inclination: 43.0000°
perigee height: 482 km
apogee height: 484 km
right ascension of ascending node: 104.8841°
argument of perigee: 271.0598°
revolutions per day: 15.27598513
mean anomaly at epoch: 89.0087°

The dashed part of the orbit path shows where the satellite is in the earth's shadow,  

DLR